Location: *
(45.1961°N, 1.9694°E)
Time: 04:19:09
(UTC+00:00)

SJ-6B - Pass Details

Date: 25 August 2019
Orbit: 511 x 581 km, 97.7° (Epoch: 15 September)

Event Time Altitude Azimuth Distance (km) Brightness Sun altitude
Rises 19:06:28 0° 153° (SSE) 2,720 5.9 -4.8°
Reaches altitude 10° 19:08:36 10° 148° (SSE) 1,841 5.0 -5.1°
Maximum altitude 19:12:29 52° 73° (ENE) 714 3.1 -5.8°
Drops below altitude 10° 19:16:28 10° 357° (N) 1,890 5.9 -6.4°
Sets 19:18:40 0° 352° (N) 2,801 6.9 -6.8°
